Flag for Germany Weather past 2 weeks in Bautzen, Saxony, Germany

Now
46 °F

Overcast.


Feels Like: 41 °F
Forecast: 46 / 49 °F
Wind: 10 mph from West

Location: Goerlitz

Current Time: Dec 22, 2014 at 6:51:11 AM

Latest Report: Dec 22, 2014 at 6:00 AM


Visibility: 38 mi

Pressure: 29.96 "Hg

Humidity: 75%

Dew point: 38 °F

Location of BautzenLocation

Historic Weather in Bautzen — Graph

°F

Bautzen temperature yesterday

Maximum temperature yesterday: 43 °F (at 11:00 PM)
Minimum temperature yesterday: 37 °F (at 6:00 AM)
Average temperature yesterday: 40 °F

Past Weeks' High & Low Weather Summary

 TemperatureHumidityPressure
High54 °F (Dec 19, 4:00 AM)99% (Dec 9, 9:00 PM)30.46 "Hg (Dec 9, 9:00 PM)
Low24 °F (Dec 9, 8:00 AM)65% (Dec 20, 11:00 AM)29.58 "Hg (Dec 12, 9:00 PM)
Average39 °F87%29.98 "Hg
* Reported Dec 7 6:00 AM — Dec 22 6:00 AM, Bautzen, Weather by CustomWeather, © 2014

Note: Actual official high and low records may vary slightly from our data, if they occured in-between our weather recording intervals... More about our weather records

Advertising

Bautzen weather history for previous 24 hours

 ConditionsComfort  
Time TempWeatherWind HumidityBarometerVisibility
6:00 AM
Dec 22
46 °FOvercast.10 mph75%29.96 "Hg37 mi
5:00 AM45 °FOvercast.12 mph75%29.97 "Hg37 mi
4:00 AM45 °FOvercast.10 mph75%30.00 "Hg37 mi
3:00 AM44 °FLight rain. Overcast.9 mph81%30.04 "Hg12 mi
2:00 AM44 °FLight rain. Overcast.10 mph75%30.04 "Hg37 mi
1:00 AM44 °FLight rain. Overcast.9 mph74%30.07 "Hg37 mi
12:00 AM43 °FOvercast.9 mph77%30.11 "Hg34 mi
11:00 PM
Dec 21
43 °FOvercast.9 mph76%30.14 "Hg31 mi
10:00 PM43 °FLight rain. Overcast.8 mph76%30.15 "Hg28 mi
9:00 PM42 °FLight rain. Overcast.8 mph75%30.18 "Hg22 mi
8:00 PM42 °FOvercast.9 mph73%30.20 "Hg25 mi
7:00 PM41 °FOvercast.8 mph76%30.22 "Hg12 mi
6:00 PM41 °FOvercast.7 mph74%30.23 "Hg12 mi
5:00 PM41 °FOvercast.7 mph77%30.26 "Hg12 mi
4:00 PM41 °FOvercast.6 mph78%30.27 "Hg19 mi
3:00 PM41 °FOvercast.6 mph77%30.27 "Hg17 mi
2:00 PM41 °FOvercast.7 mph78%30.28 "Hg17 mi
1:00 PM40 °FOvercast.7 mph83%30.28 "Hg13 mi
12:00 PM40 °FOvercast.8 mph82%30.28 "Hg11 mi
11:00 AM40 °FOvercast.9 mph83%30.29 "Hg13 mi
10:00 AM39 °FOvercast.8 mph86%30.27 "Hg13 mi
9:00 AM38 °FPartly sunny.7 mph89%30.25 "Hg11 mi
8:00 AM38 °FPassing clouds.8 mph88%30.20 "Hg11 mi
7:00 AM38 °FLight rain. Overcast.7 mph90%30.18 "Hg7 mi
6:00 AM37 °FPassing clouds.7 mph90%30.16 "Hg15 mi
Weather by CustomWeather, © 2014

See weather overviewHow to use our weather pages